Find Starlink 32402

NORAD ID: 61708 Int'l Des: 2024-196 Owner: SPXS Country: US Constellation: starlink operational
LEOCIRCULAR

Current View

Loading 3D Globe...

About Starlink 32402

Starlink 32402 (NORAD 61708) is a starlink constellation satellite (v2 mini) launched Oct 30, 2024 by SPXS of US. It operates in LEO, CIRCULAR orbit with a mass of 730.00 kg.

About Starlink 32402

Description loading...

Upcoming Passes

Passes for default location (London). Set your location on the main map for personalized predictions.

Altitude History

Loading altitude history...

Two-Line Element Set

1 61708U 24196B 26178.09271931 -.00002148 00000-0 -52482-4 0 9992
2 61708 53.1641 312.6872 0000947 98.2531 261.8579 15.34387260 93910
Epoch: Jun 27, 2026 • Age: 15 hours

Current Status

Altitude 473.6 km
Velocity 7.63 km/s
Sub-Earth Point -33.42°S, 15.58°W
Launch Date Oct 30, 2024
Age 1.6 years
Type internet

Technical Details

Classification Payload
Mass 730.00 kg
Dry Mass 700.00 kg
Total Mass 730.00 kg
Length 0.30 m
Diameter 4.10 m
Span 29.00 m
Shape Box + pan
Manufacturer SPXS
Bus Type Starlink V2M
Phase Status In Orbit
Owner/State SPXS/US

Most Searched